User: anonymous   Login
Location: NJAA Observatory
(40.6819°N, 74.8979°W)
Time: 07:01:20
(UTC-04:00)
Language:

Cosmos 1939 Rocket - Orbit

View from above orbital plane
View from above orbital plane
View from above satellite
View from above satellite

Ground track
Ground track

The orbit data is extracted from the following two-line orbital elements,

1 19046U 88032B   14295.24712101  .00003486  00000-0  28145-3 0   276
2 19046 097.6377 347.4936 0038599 032.3901 327.9680 14.99916490427245
Epoch (UTC): 22 October 2014 05:55:51
Eccentricity: 0.0038599
inclination: 97.6377°
perigee height: 540 km
apogee height: 594 km
right ascension of ascending node: 347.4936°
argument of perigee: 32.3901°
revolutions per day: 14.99916490
mean anomaly at epoch: 327.9680°
orbit number at epoch: 42724

The dashed part of the orbit path shows where the satellite is in the earth's shadow,  

DLR